Location: Gönnheim
(49.4488°N, 8.2383°E)
Time: 01:58:38
(UTC+00:00)

Cosmos 1975 - Pass Details

Date: 19 May 2025
Orbit: 487 x 505 km, 82.5° (Epoch: 23 June)

Event Time Altitude Azimuth Distance (km) Brightness Sun altitude
Rises 22:45:52 0° 344° (NNW) 2,576 7.8 -20.1°
Reaches altitude 10° 22:48:03 10° 338° (NNW) 1,688 6.4 -20.1°
Maximum altitude 22:51:33 43° 266° (W) 698 3.3 -20.2°
Enters shadow 22:51:59 41° 245° (WSW) 721 3.2 -20.2°
